| time (UTC) | temp F | wind direction | speed MPH | gust MPH | rain 1hr in | rain 24hr in | rain mn in | humidity % | barometer mb |
| 20260505080111 | 46 | 0 | 0.0 | 0.0 | 0.00 | 0.14 | 0.00 | 90 | 1009.7 |
| 20260505074559 | 47 | 0 | 0.0 | 0.0 | 0.00 | 0.14 | 0.00 | 90 | 1009.7 |
| 20260505073058 | 47 | 0 | 0.0 | 2.0 | 0.00 | 0.14 | 0.00 | 90 | 1009.8 |
| 20260505071558 | 47 | 0 | 0.0 | 0.0 | 0.00 | 0.14 | 0.00 | 90 | 1009.9 |
| 20260505070059 | 47 | 0 | 0.0 | 0.0 | 0.00 | 0.14 | 0.00 | 90 | 1010.1 |
| 20260505064554 | 47 | 0 | 0.0 | 3.0 | 0.00 | 0.14 | 0.00 | 90 | 1010.1 |
| 20260505063123 | 47 | 0 | 0.0 | 0.0 | 0.00 | 0.14 | 0.00 | 90 | 1010.2 |
| 20260505061639 | 46 | 0 | 0.0 | 0.0 | 0.00 | 0.14 | 0.00 | 90 | 1010.2 |
| 20260505060105 | 46 | 0 | 0.0 | 0.0 | 0.00 | 0.14 | 0.00 | 89 | 1010.1 |
| 20260505054559 | 46 | 0 | 0.0 | 0.0 | 0.00 | 0.14 | 0.14 | 89 | 1010.3 |
| 20260505053100 | 46 | 0 | 0.0 | 0.0 | 0.00 | 0.14 | 0.14 | 89 | 1010.0 |
| 20260505051614 | 46 | 0 | 0.0 | 3.0 | 0.01 | 0.14 | 0.14 | 88 | 1010.1 |
| 20260505041600 | 47 | 0 | 0.0 | 0.0 | 0.08 | 0.13 | 0.13 | 86 | 1010.8 |
| 20260505040107 | 47 | 0 | 0.0 | 0.0 | 0.09 | 0.12 | 0.12 | 85 | 1010.7 |
| 20260505034559 | 47 | 0 | 0.0 | 6.0 | 0.08 | 0.11 | 0.11 | 84 | 1010.9 |
| 20260505033056 | 49 | 0 | 0.0 | 9.0 | 0.06 | 0.09 | 0.09 | 82 | 1011.0 |
| 20260505031558 | 51 | 280 | 1.0 | 3.0 | 0.02 | 0.05 | 0.05 | 76 | 1010.4 |
| 20260505030057 | 51 | 0 | 0.0 | 4.0 | 0.00 | 0.03 | 0.03 | 74 | 1010.0 |
| 20260505024555 | 51 | 0 | 2.0 | 7.0 | 0.00 | 0.03 | 0.03 | 74 | 1009.5 |
| 20260505023058 | 51 | 311 | 0.0 | 0.0 | 0.00 | 0.03 | 0.03 | 82 | 1009.1 |
| 20260505021558 | 51 | 0 | 0.0 | 0.0 | 0.00 | 0.03 | 0.03 | 81 | 1008.8 |
| 20260505014557 | 51 | 0 | 0.0 | 2.0 | 0.00 | 0.03 | 0.03 | 79 | 1008.8 |
| 20260505013107 | 51 | 0 | 0.0 | 0.0 | 0.03 | 0.03 | 0.03 | 79 | 1008.5 |
| 20260505011555 | 52 | 0 | 0.0 | 3.0 | 0.03 | 0.03 | 0.03 | 77 | 1008.6 |
| 20260505010110 | 52 | 92 | 1.0 | 6.0 | 0.03 | 0.03 | 0.03 | 77 | 1008.4 |
| 20260505004554 | 52 | 70 | 1.0 | 4.0 | 0.03 | 0.03 | 0.03 | 70 | 1008.7 |
| 20260505003059 | 57 | 9 | 2.0 | 9.0 | 0.00 | 0.00 | 0.00 | 58 | 1009.0 |
| 20260505001604 | 60 | 195 | 1.0 | 6.0 | 0.00 | 0.00 | 0.00 | 43 | 1008.9 |
| 20260505000052 | 61 | 0 | 0.0 | 6.0 | 0.00 | 0.00 | 0.00 | 41 | 1008.2 |
| 20260504234553 | 61 | 279 | 1.0 | 8.0 | 0.00 | 0.00 | 0.00 | 40 | 1008.1 |
| 20260504233107 | 62 | 19 | 2.0 | 7.0 | 0.00 | 0.00 | 0.00 | 38 | 1007.8 |
| 20260504231551 | 62 | 0 | 1.0 | 12.0 | 0.00 | 0.00 | 0.00 | 38 | 1007.7 |
| 20260504230057 | 63 | 38 | 4.0 | 11.0 | 0.00 | 0.00 | 0.00 | 35 | 1007.4 |
| 20260504224553 | 64 | 352 | 3.0 | 12.0 | 0.00 | 0.00 | 0.00 | 35 | 1007.1 |
| 20260504223053 | 64 | 14 | 4.0 | 14.0 | 0.00 | 0.00 | 0.00 | 34 | 1006.8 |
| 20260504221553 | 63 | 14 | 7.0 | 19.0 | 0.00 | 0.00 | 0.00 | 34 | 1006.7 |
| 20260504220052 | 64 | 345 | 7.0 | 17.0 | 0.00 | 0.00 | 0.00 | 33 | 1006.7 |
| 20260504214556 | 67 | 42 | 4.0 | 13.0 | 0.00 | 0.00 | 0.00 | 24 | 1006.2 |
| 20260504213055 | 68 | 81 | 4.0 | 11.0 | 0.00 | 0.00 | 0.00 | 25 | 1005.9 |
| 20260504211552 | 69 | 29 | 6.0 | 15.0 | 0.00 | 0.00 | 0.00 | 24 | 1006.1 |
| 20260504210106 | 70 | 35 | 3.0 | 11.0 | 0.00 | 0.00 | 0.00 | 24 | 1006.4 |
| 20260504204559 | 72 | 30 | 2.0 | 9.0 | 0.00 | 0.00 | 0.00 | 25 | 1006.7 |
| 20260504203104 | 71 | 286 | 4.0 | 13.0 | 0.00 | 0.00 | 0.00 | 27 | 1007.0 |
| 20260504201557 | 68 | 18 | 3.0 | 11.0 | 0.00 | 0.00 | 0.00 | 27 | 1006.9 |
| 20260504200056 | 65 | 5 | 7.0 | 15.0 | 0.00 | 0.00 | 0.00 | 30 | 1006.9 |
| 20260504194602 | 64 | 38 | 7.0 | 15.0 | 0.00 | 0.00 | 0.00 | 31 | 1007.0 |
| 20260504193058 | 63 | 30 | 8.0 | 17.0 | 0.00 | 0.00 | 0.00 | 32 | 1007.1 |
| 20260504191555 | 64 | 229 | 6.0 | 13.0 | 0.00 | 0.00 | 0.00 | 31 | 1007.9 |
| 20260504190126 | 64 | 216 | 6.0 | 17.0 | 0.00 | 0.00 | 0.00 | 30 | 1007.4 |
| 20260504184555 | 67 | 188 | 5.0 | 16.0 | 0.00 | 0.00 | 0.00 | 25 | 1006.9 |
| 20260504183057 | 69 | 202 | 1.0 | 5.0 | 0.00 | 0.00 | 0.00 | 21 | 1006.6 |
| 20260504181559 | 69 | 0 | 0.0 | 10.0 | 0.00 | 0.00 | 0.00 | 21 | 1006.6 |
| 20260504180059 | 70 | 5 | 4.0 | 12.0 | 0.00 | 0.00 | 0.00 | 20 | 1006.6 |
| 20260504174559 | 71 | 325 | 2.0 | 11.0 | 0.00 | 0.00 | 0.00 | 19 | 1006.7 |
| 20260504173057 | 74 | 61 | 1.0 | 8.0 | 0.00 | 0.00 | 0.00 | 19 | 1006.9 |
| 20260504171558 | 73 | 360 | 3.0 | 10.0 | 0.00 | 0.00 | 0.00 | 20 | 1007.1 |
| 20260504081559 | 50 | 0 | 0.0 | 0.0 | 0.00 | 0.00 | 0.00 | 45 | 1009.2 |